PDT,Max TemperatureF,Mean TemperatureF,Min TemperatureF,Max Dew PointF,MeanDew PointF,Min DewpointF,Max Humidity, Mean Humidity, Min Humidity, Max Sea Level PressureIn, Mean Sea Level PressureIn, Min Sea Level PressureIn, Max VisibilityMiles, Mean VisibilityMiles, Min VisibilityMiles, Max Wind SpeedMPH, Mean Wind SpeedMPH, Max Gust SpeedMPH,PrecipitationIn, CloudCover, Events, WindDirDegrees
2013-3-1,66,54,41,51,46,42,100,78,56,30.47,30.37,30.27,10,8,0,10,3,12,0.00,2,Fog,355
2013-3-2,69,59,48,49,46,39,89,67,45,30.26,30.19,30.13,10,9,5,12,3,14,0.00,2,,276
2013-3-3,57,53,48,49,48,45,93,83,72,30.17,30.14,30.10,10,9,5,13,5,16,0.00,7,,255
2013-3-4,52,47,42,45,43,38,86,79,71,30.21,30.16,30.09,10,10,9,13,5,16,0.00,7,,243
2013-3-5,58,52,46,44,40,33,86,68,50,30.14,30.06,29.98,10,10,10,21,6,26,0.01,4,,213
2013-3-6,56,49,42,48,43,38,89,70,51,30.14,30.07,29.98,10,8,2,21,7,29,0.32,4,,198
2013-3-7,57,50,42,47,41,37,93,72,51,30.05,29.95,29.87,10,9,5,9,4,12,0.23,4,Rain,71
2013-3-8,53,49,45,46,43,39,100,83,66,30.17,29.98,29.84,10,10,2,23,9,30,0.14,8,,268
2013-3-9,58,52,46,46,42,38,86,72,57,30.36,30.27,30.19,10,10,9,15,7,21,0.00,5,,266
2013-3-10,55,47,39,47,41,36,100,86,71,30.39,30.34,30.31,10,8,0,12,4,16,0.00,1,Fog,44
2013-3-11,58,48,37,47,41,35,93,78,62,30.31,30.23,30.15,10,6,0,10,2,24,0.00,3,Fog,291
2013-3-12,56,50,43,49,46,43,100,89,77,30.19,30.14,30.10,10,4,0,10,3,14,0.00,6,Fog,356
2013-3-13,70,58,45,53,47,45,100,72,44,30.19,30.14,30.11,10,3,0,13,3,23,0.00,4,Fog,259
2013-3-14,62,52,42,49,45,42,100,77,53,30.23,30.15,30.10,10,4,0,13,3,29,0.00,4,Fog,208
2013-3-15,63,54,45,49,47,42,100,89,77,30.18,30.13,30.10,10,8,0,13,5,29,0.00,3,Fog,223
2013-3-16,65,55,44,51,47,44,100,81,62,30.18,30.12,30.06,10,7,0,17,5,22,0.01,5,Fog,211
2013-3-17,58,50,41,48,44,39,89,78,66,30.19,30.15,30.13,10,10,9,16,6,20,0.00,1,,224
2013-3-18,56,51,46,47,45,42,100,86,72,30.19,30.13,30.07,10,7,1,18,3,24,0.00,5,,162
2013-3-19,64,55,46,49,43,35,86,69,51,30.23,30.15,30.10,10,10,9,17,5,21,0.06,2,Rain,32
2013-3-20,62,56,49,54,50,36,100,68,36,30.18,30.16,30.11,10,10,5,10,4,20,0.04,7,,263
2013-3-21,56,52,47,50,44,41,96,79,61,30.18,30.13,30.07,10,10,8,17,7,23,0.00,5,,248
2013-3-22,63,51,39,43,38,31,86,58,30,30.14,30.10,30.06,10,10,8,14,5,18,0.00,0,,201
2013-3-23,65,52,39,44,37,28,80,54,27,30.17,30.13,30.10,10,10,8,10,4,15,0.00,0,,235
2013-3-24,58,49,40,46,43,37,92,79,66,30.14,30.10,30.05,10,9,6,15,5,18,0.00,0,,242
2013-3-25,55,51,47,47,45,42,93,82,71,30.08,30.05,30.00,10,9,6,14,6,24,0.00,4,,230
2013-3-26,59,51,43,47,44,41,89,76,62,30.07,30.04,30.01,10,10,10,15,5,17,0.00,3,,217
2013-3-27,67,56,45,52,47,39,93,77,60,30.08,30.03,29.98,10,10,10,22,7,28,0.00,4,,170
2013-3-28,64,57,49,54,51,48,93,80,67,30.14,30.09,30.03,10,9,2,15,4,18,0.00,6,,160
2013-3-29,65,54,42,51,48,43,100,80,60,30.14,30.09,30.06,10,7,0,20,4,24,0.00,4,Fog,244
2013-3-30,65,58,50,54,51,48,100,78,56,30.14,30.09,30.03,10,7,1,10,3,14,0.35,7,,43
2013-3-31,69,59,49,54,49,45,100,74,48,30.12,30.09,30.03,10,10,10,18,6,24,0.06,4,,164